This demonstration page uses our WeatherBlox Daily Observations layout. Learn more.

Left ArrowRight Arrow

34.74481, -87.66753

Hourly Observations for June 3, 2018

Temp ( °F °C ) Dew Point ( °F °C ) Humidity (%) Winds ( mph kmh ) Pressure ( in mb ) Visibility ( mi km ) Precip ( " mm )
12:53 am 00:53 Clear 75 23.9 73 22.8 94 94 Calm 29.89 1012 10 16 0.00 0.00
1:53 am 01:53 Clear with Mist and Fog 73 22.8 72 22.2 96 96 SSE 3 6 29.88 1012 4 6 0.00 0.00
2:53 am 02:53 Clear 73 22.8 71 21.7 94 94 Calm 29.86 1011 8 13 0.00 0.00
3:53 am 03:53 Clear 73 22.8 71 21.7 94 94 Calm 29.86 1011 8 13 0.00 0.00
4:46 am 04:46 Mostly Cloudy with Nearby Thunderstorms 74 23.3 72 22.2 94 94 WNW 7 11 29.91 1013 9 14 0.00 0.00
4:53 am 04:53 Mostly Cloudy with Nearby Thunderstorms 74 23.3 72 22.2 94 94 NW 18 30 29.93 1013 10 16 0.00 0.00
5:02 am 05:02 Mostly Cloudy with Thunderstorms 74 23.3 69 20.6 85 85 WNW 17 28 29.91 1013 10 16 0.00 0.00
5:20 am 05:20 Cloudy with Nearby Thunderstorms 73 22.8 65 18.3 76 76 W 8 13 29.85 1011 10 16 0.00 0.03
5:42 am 05:42 Mostly Sunny 73 22.8 64 17.8 74 74 VRB 3 6 29.85 1011 10 16 0.00 0.03
5:53 am 05:53 Sunny 72 22.2 65 18.3 79 79 NNW 5 7 29.84 1011 10 16 0.00 0.03
6:53 am 06:53 Sunny 72 22.2 66 18.9 82 82 Calm 29.87 1012 10 16 0.00 0.00
7:53 am 07:53 Sunny 75 23.9 69 20.6 82 82 W 3 6 29.91 1013 10 16 0.00 0.00
8:33 am 08:33 Mostly Cloudy 76 24.4 70 21.1 82 82 VRB 3 6 29.91 1013 10 16 0.00 0.00
8:53 am 08:53 Cloudy 78 25.6 72 22.2 82 82 NW 8 13 29.93 1013 10 16 0.00 0.00
9:37 am 09:37 Cloudy 78 25.6 73 22.8 85 85 WSW 6 9 29.94 1014 10 16 0.00 0.00
9:51 am 09:51 Cloudy 79 26 73 23 84 84 WNW 5 7 29.94 1014 10 16 0.00 0.00
9:53 am 09:53 Cloudy 78 25.6 73 22.8 85 85 WNW 7 11 29.93 1014 10 16 0.00 0.00
10:48 am 10:48 Cloudy 79 26 73 23 84 84 WNW 6 9 29.94 1014 10 16 0.00 0.00
10:53 am 10:53 Cloudy 79 26.1 74 23.3 85 85 WNW 7 11 29.95 1014 10 16 0.00 0.00
11:32 am 11:32 Cloudy 81 27.2 73 22.8 77 77 NW 8 13 29.94 1014 10 16 0.00 0.00
11:53 am 11:53 Cloudy 81 27.2 73 22.8 77 77 NW 9 15 29.96 1015 10 16 0.00 0.00
12:35 pm 12:35 Cloudy 81 27.2 73 22.8 77 77 NW 7 11 29.97 1015 10 16 0.00 0.00
12:53 pm 12:53 Mostly Cloudy 83 28.3 73 22.8 72 72 NW 13 20 29.97 1015 10 16 0.00 0.00
1:53 pm 13:53 Mostly Sunny 85 29.4 71 21.7 63 63 NNW 9 15 29.95 1014 10 16 0.00 0.00
2:53 pm 14:53 Partly Cloudy 85 29.4 71 21.7 63 63 NW 8 13 29.95 1014 10 16 0.00 0.00
3:53 pm 15:53 Mostly Sunny 85 29.4 67 19.4 55 55 N 9 15 29.94 1014 10 16 0.00 0.00
4:53 pm 16:53 Mostly Cloudy 85 29.4 68 20 57 57 NNW 13 20 29.93 1013 10 16 0.00 0.00
5:53 pm 17:53 Sunny 84 28.9 64 17.8 51 51 NW 9 15 29.94 1014 10 16 0.00 0.00
6:53 pm 18:53 Mostly Sunny 82 27.8 62 16.7 51 51 N 8 13 29.95 1014 10 16 0.00 0.00
7:53 pm 19:53 Sunny 78 25.6 63 17.2 60 60 N 7 11 29.97 1015 10 16 0.00 0.00
8:53 pm 20:53 Clear 75 23.9 64 17.8 69 69 N 5 7 29.98 1015 10 16 0.00 0.00
9:53 pm 21:53 Clear 71 21.7 64 17.8 79 79 NW 3 6 30.01 1016 10 16 0.00 0.00
10:53 pm 22:53 Clear 69 20.6 64 17.8 84 84 NW 3 6 30.02 1017 10 16 0.00 0.00
11:53 pm 23:53 Clear 68 20 64 17.8 87 87 Calm 30.03 1017 10 16 0.00 0.00

Powered by AerisWeather